This is the latest recevied weather packets stored in our database for station/object KD8OZS. If no packets are shown the sender has not sent any weather packets the latest 10 day(s).
| Time | Temp. | Humidity | Pressure | Rain* | Wind** | Luminosity | Snow |
|---|---|---|---|---|---|---|---|
| 1788017408 | 23.33° C | 62% | 1016.4 hPa | 0 mm | - | 143 W/m² | - |
| 1788017105 | 23.33° C | 61% | 1016.3 hPa | 0 mm | - | 93 W/m² | - |
| 1788016804 | 23.33° C | 62% | 1016.4 hPa | 0 mm | - | 91 W/m² | - |
| 1788016502 | 22.78° C | 63% | 1016.3 hPa | 0 mm | - | 263 W/m² | - |
| 1788016197 | 22.78° C | 62% | 1016.4 hPa | 0 mm | - | 180 W/m² | - |
| 1788015896 | 22.78° C | 64% | 1016.4 hPa | 0 mm | - | 92 W/m² | - |
| 1788015596 | 22.78° C | 66% | 1016.4 hPa | 0 mm | - | 111 W/m² | - |
| 1788015291 | 22.22° C | 66% | 1016.4 hPa | 0 mm | - | 104 W/m² | - |
| 1788014990 | 22.22° C | 62% | 1016.6 hPa | 0 mm | - | 92 W/m² | - |
| 1788014689 | 21.67° C | 64% | 1016.6 hPa | 0 mm | - | 109 W/m² | - |
| 1788014384 | 21.67° C | 64% | 1016.6 hPa | 0 mm | - | 115 W/m² | - |
| 1788014080 | 21.67° C | 64% | 1016.8 hPa | 0 mm | - | 166 W/m² | - |
| 1788013779 | 21.67° C | 65% | 1016.7 hPa | 0 mm | - | 216 W/m² | - |
| 1788013474 | 21.67° C | 65% | 1016.7 hPa | 0 mm | - | 443 W/m² | - |
| 1788013173 | 21.67° C | 69% | 1017 hPa | 0 mm | - | 474 W/m² | - |
| 1788012872 | 21.67° C | 72% | 1016.9 hPa | 0 mm | - | 382 W/m² | - |
| 1788012567 | 21.11° C | 71% | 1016.8 hPa | 0 mm | - | 454 W/m² | - |
| 1788012263 | 21.11° C | 74% | 1016.8 hPa | 0 mm | - | 434 W/m² | - |
| 1788011961 | 20.56° C | 75% | 1016.9 hPa | 0 mm | - | 434 W/m² | - |
| 1788011661 | 20° C | 77% | 1016.8 hPa | 0 mm | - | 423 W/m² | - |
| 1788011356 | 19.44° C | 78% | 1016.5 hPa | 0 mm | - | 299 W/m² | - |
| 1788011055 | 18.89° C | 80% | 1016.7 hPa | 0 mm | - | 398 W/m² | - |
| 1788010751 | 20° C | 79% | 1016.6 hPa | 0 mm | - | 321 W/m² | - |
| 1788010449 | 18.89° C | 82% | 1016.7 hPa | 0 mm | - | 395 W/m² | - |
| 1788010144 | 18.89° C | 81% | 1016.5 hPa | 0 mm | - | 425 W/m² | - |
* Rain latest hour (hover to see other rain measurements)
** Current wind speed in m/s (hover to see current wind gust speed)